User: anonymous   Login
Location: Unspecified
(0.0000°N, 0.0000°E)
Time: 02:47:46
(UTC+00:00)
Language:

HO-68 - Orbit

View from above orbital plane
View from above orbital plane
View from above satellite
View from above satellite

Ground track
Ground track

The orbit data is extracted from the following two-line orbital elements,

1 36122U 09072B   18020.86681229 -.00000040  00000-0  54460-5 0  9994
2 36122 100.0848  42.3425 0008160  92.9381 267.2667 13.16343005389275
Epoch (UTC): 20 January 2018 20:48:12
Eccentricity: 0.0008160
inclination: 100.0848°
perigee height: 1192 km
apogee height: 1205 km
right ascension of ascending node: 42.3425°
argument of perigee: 92.9381°
revolutions per day: 13.16343005
mean anomaly at epoch: 267.2667°
orbit number at epoch: 38927

The dashed part of the orbit path shows where the satellite is in the earth's shadow,  

DLR